Regional Weather Roundup
Issued by NWS

Home | Current Version | Previous Version | Text Only | Print | Product List | Glossary On
Versions: 1 2 3 4 5 6 7 8 9 10 11 12 13 14 15 16 17 18 19 20 21 22 23 24 25 26 27 28 29 30 31 32 33 34 35 36 37 38 39 40 41 42 43 44 45 46 47 48 49 50
000
ASPQ40 PGUM 160712
RWRPQ
WEATHER ROUNDUP FOR THE MARIANAS AND MICRONESIA
NATIONAL WEATHER SERVICE TIYAN GU
500 PM CHST SAT DEC 16 2017

GUZ001>004-160800-
MARIANA ISLANDS-

CITY           SKY/WX    TMP DP  RH WIND       PRES   REMARKS
GUAM AIRPORT   SUNNY     79  79 100 E6        29.83R
ANDERSEN AFB   SUNNY     77  75  94 SE8       29.83R
ROTA AIRPORT   PTSUNNY   82  75  78 E16       29.82R
TINIAN AP      PTSUNNY   81  77  89 E14       29.81R
SAIPAN AP      MOCLDY    82  79  89 E15       29.82R HX  93

$$

PMZ161-160800-
REPUBLIC OF PALAU-

CITY           SKY/WX    TMP DP  RH WIND       PRES   REMARKS
KOROR AP       CLOUDY    84  77  79 SW10      29.72S HX  94
KOROR WSO      CLOUDY    84  79  84 SW5       29.73R HX  96

$$

PMZ171>174-160800-
FEDERATED STATES OF MICRONESIA-

CITY           SKY/WX    TMP DP  RH WIND       PRES   REMARKS
YAP AIRPORT    LGT RAIN  79  77  94 CALM      29.76S
CHUUK AP       CLOUDY    84  79  84 E12       29.69S HX  96
POHNPEI AP     NOT AVBL
POHNPEI WSO    CLOUDY    84  77  79 NE9       29.77R HX  94
KOSRAE AP      NOT AVBL

$$

PMZ181-160800-
REPUBLIC OF THE MARSHALL ISLANDS-

CITY           SKY/WX    TMP DP  RH WIND       PRES   REMARKS
KWAJALEIN AP   MOCLDY    82  75  78 E15       29.78R
MAJURO AP      NOT AVBL
MAJURO WSO     PTCLDY    84  77  79 E12       29.75R HX  94

$$




USA.gov is the U.S. government's official web portal to all federal, state and local government web resources and services.